Home   Weather   40°19'N, 76°46'W   Past weeks
Flag for USA

Past Weather in 40°19'N, 76°46'W, USA — Yesterday and Last 2 Weeks

Now
72 °F

Passing clouds.


Feels Like: 75 °F
Forecast: 81 / 65 °F
Wind: 3 mph from West

Location: Capital City Airport

Current Time: May 27, 2019 at 12:10:21 am

Latest Report: May 26, 2019 at 10:56 pm


Visibility: 10 mi

Pressure: 29.95 "Hg

Humidity: 66%

Dew Point: 60 °F

Location of 40°19'N, 76°46'WLocation

Past Weather in 40°19'N, 76°46'W — Graph

°F

40°19'N, 76°46'W Temperature Yesterday

Maximum temperature yesterday: 88 °F (at 12:56 pm)
Minimum temperature yesterday: 66 °F (at 3:56 am)
Average temperature yesterday: 75 °F

High & Low Weather Summary for the Past Weeks

 TemperatureHumidityPressure
High91 °F (May 19, 3:56 pm)96% (May 26, 6:35 am)30.29 "Hg (May 26, 6:35 am)
Low45 °F (May 13, 5:04 am)27% (May 15, 1:56 pm)29.74 "Hg (May 17, 3:56 pm)
Average65 °F66%29.94 "Hg
* Reported May 11 10:56 pm — May 26 10:56 pm, 40°19'N, 76°46'W. Weather by CustomWeather, © 2019

Note: Actual official high and low records may vary slightly from our data, if they occured in-between our weather recording intervals... More about our weather records

Advertising

40°19'N, 76°46'W Weather History for the Previous 24 Hours

Scroll right to see more
 ConditionsComfort  
Time TempWeatherWind HumidityBarometerVisibility
10:56 pm
Sun, May 26
72 °FPassing clouds.3 mph66%29.95 "Hg10 mi
9:56 pm75 °FPassing clouds.8 mph55%29.96 "Hg10 mi
8:56 pm78 °FPassing clouds.9 mph62%29.93 "Hg10 mi
7:56 pm78 °FSunny.3 mph64%29.91 "Hg10 mi
6:56 pm79 °FSunny.5 mph62%29.91 "Hg10 mi
5:56 pm83 °FSunny.6 mph53%29.91 "Hg10 mi
4:56 pm83 °FSunny.8 mph51%29.90 "Hg10 mi
3:56 pm83 °FSunny.9 mph55%29.92 "Hg10 mi
2:56 pm81 °FSunny.10 mph62%29.94 "Hg10 mi
2:37 pm81 °FScattered clouds.10 mph62%29.95 "Hg10 mi
1:56 pm83 °FBroken clouds.12 mph55%29.96 "Hg10 mi
12:56 pm88 °FSunny.12 mph45%29.94 "Hg10 mi
11:56 am85 °FSunny.3 mph50%29.96 "Hg10 mi
10:56 am83 °FSunny.9 mph53%29.99 "Hg10 mi
9:56 am79 °FSunny.9 mph62%30.01 "Hg10 mi
8:56 am75 °FSunny.8 mph71%30.02 "Hg10 mi
7:56 am71 °FSunny.5 mph81%30.01 "Hg10 mi
7:20 am68 °FFog.3 mph90%30.01 "Hg6 mi
6:56 am67 °FFog.6 mph93%30.00 "Hg1 mi
6:44 am67 °FFog.No wind93%30.00 "Hg1 mi
6:35 am66 °FFog.No wind96%30.00 "Hg1 mi
5:56 am66 °FFog.3 mph93%29.99 "Hg2 mi
5:13 am67 °FFog.3 mph93%29.99 "Hg6 mi
4:56 am67 °FLow clouds.No wind90%29.99 "Hg10 mi
3:56 am66 °FLow clouds.No wind90%29.98 "Hg8 mi
2:56 am68 °FLow clouds.No wind87%29.98 "Hg10 mi
1:56 am68 °FPassing clouds.3 mph87%29.98 "Hg10 mi
12:56 am69 °FPassing clouds.3 mph84%29.99 "Hg10 mi
12:07 am70 °FMostly cloudy.6 mph81%30.01 "Hg10 mi
Weather by CustomWeather, © 2019

See weather overview